Time,TemperatureF,DewpointF,PressureIn,WindDirection,WindDirectionDegrees,WindSpeedMPH,WindSpeedGustMPH,Humidity,HourlyPrecipIn,Conditions,Clouds,dailyrainin,SoftwareType,DateUTC
2013-02-22 00:00:00,27.4,18.0,30.14,NNW,337,5.6,14.9,64,0.00,,,0.00,Rainwise IP-100,2013-02-22 05:00:00,
2013-02-22 00:05:00,27.6,18.0,30.15,NW,315,3.5,12.6,64,0.00,,,0.00,Rainwise IP-100,2013-02-22 05:05:00,
2013-02-22 00:10:00,27.8,18.0,30.16,North,360,5.1,14.2,64,0.00,,,0.00,Rainwise IP-100,2013-02-22 05:10:00,
2013-02-22 00:15:00,28.2,18.0,30.16,NW,315,5.4,17.7,64,0.00,,,0.00,Rainwise IP-100,2013-02-22 05:15:00,
2013-02-22 00:20:00,28.5,18.0,30.17,NNW,337,5.8,12.8,64,0.00,,,0.00,Rainwise IP-100,2013-02-22 05:20:00,
2013-02-22 00:25:00,28.8,18.0,30.17,NW,315,6.5,17.0,63,0.00,,,0.00,Rainwise IP-100,2013-02-22 05:25:00,
2013-02-22 00:30:00,28.8,18.0,30.16,NNW,337,4.4,16.3,63,0.00,,,0.00,Rainwise IP-100,2013-02-22 05:30:00,
2013-02-22 00:35:00,28.8,18.0,30.16,NNW,337,6.3,13.1,63,0.00,,,0.00,Rainwise IP-100,2013-02-22 05:35:00,
2013-02-22 00:40:00,28.8,18.0,30.18,North,360,12.1,16.8,64,0.00,,,0.00,Rainwise IP-100,2013-02-22 05:40:00,
2013-02-22 00:45:00,28.9,18.0,30.18,NW,315,7.9,15.6,64,0.00,,,0.00,Rainwise IP-100,2013-02-22 05:45:00,
2013-02-22 00:50:00,28.9,18.0,30.18,WNW,292,4.9,17.0,64,0.00,,,0.00,Rainwise IP-100,2013-02-22 05:50:00,
2013-02-22 00:55:00,28.9,18.0,30.18,NNW,337,4.9,17.0,64,0.00,,,0.00,Rainwise IP-100,2013-02-22 05:55:00,
2013-02-22 00:56:00,28.8,18.0,30.17,NW,315,4.7,13.3,64,0.00,,,0.00,Rainwise IP-100,2013-02-22 05:56:00,
2013-02-22 01:01:00,28.7,18.0,30.17,WNW,292,6.5,13.5,64,0.00,,,0.00,Rainwise IP-100,2013-02-22 06:01:00,
2013-02-22 01:06:00,28.5,18.0,30.18,WNW,292,9.3,14.2,64,0.00,,,0.00,Rainwise IP-100,2013-02-22 06:06:00,
2013-02-22 01:11:00,28.4,18.0,30.18,NNW,337,7.2,15.4,64,0.00,,,0.00,Rainwise IP-100,2013-02-22 06:11:00,
2013-02-22 01:16:00,28.4,18.0,30.17,NNE,22,7.2,13.8,64,0.00,,,0.00,Rainwise IP-100,2013-02-22 06:16:00,
2013-02-22 01:21:00,28.3,18.0,30.18,NNW,337,5.1,14.9,64,0.00,,,0.00,Rainwise IP-100,2013-02-22 06:21:00,
2013-02-22 01:26:00,28.3,18.0,30.18,NW,315,3.5,12.1,64,0.00,,,0.00,Rainwise IP-100,2013-02-22 06:26:00,
2013-02-22 01:31:00,28.3,18.0,30.18,NNW,337,4.2,12.4,64,0.00,,,0.00,Rainwise IP-100,2013-02-22 06:31:00,
2013-02-22 01:36:00,28.3,18.0,30.17,North,360,4.0,13.5,64,0.00,,,0.00,Rainwise IP-100,2013-02-22 06:36:00,
2013-02-22 01:41:00,28.3,18.0,30.18,North,360,7.7,15.4,65,0.00,,,0.00,Rainwise IP-100,2013-02-22 06:41:00,
2013-02-22 01:46:00,28.3,18.0,30.19,North,360,6.1,14.5,65,0.00,,,0.00,Rainwise IP-100,2013-02-22 06:46:00,
2013-02-22 01:51:00,28.3,18.0,30.18,NW,315,2.8,10.3,65,0.00,,,0.00,Rainwise IP-100,2013-02-22 06:51:00,
2013-02-22 01:53:00,28.3,18.0,30.18,WNW,292,3.3,11.0,65,0.00,,,0.00,Rainwise IP-100,2013-02-22 06:53:00,
2013-02-22 01:58:00,28.2,18.0,30.19,NW,315,6.8,8.9,65,0.00,,,0.00,Rainwise IP-100,2013-02-22 06:58:00,
2013-02-22 02:03:00,28.2,18.0,30.19,WSW,247,3.3,9.3,65,0.00,,,0.00,Rainwise IP-100,2013-02-22 07:03:00,
2013-02-22 02:08:00,28.1,18.0,30.19,NW,315,4.9,11.7,65,0.00,,,0.00,Rainwise IP-100,2013-02-22 07:08:00,
2013-02-22 02:14:00,28.1,18.0,30.19,North,360,1.9,14.0,65,0.00,,,0.00,Rainwise IP-100,2013-02-22 07:14:00,
2013-02-22 02:19:00,28.1,18.0,30.19,NNW,337,3.0,9.3,65,0.00,,,0.00,Rainwise IP-100,2013-02-22 07:19:00,
2013-02-22 02:24:00,28.1,18.0,30.19,WNW,292,7.7,9.1,65,0.00,,,0.00,Rainwise IP-100,2013-02-22 07:24:00,
2013-02-22 02:29:00,28.1,18.0,30.20,WNW,292,7.9,14.0,65,0.00,,,0.00,Rainwise IP-100,2013-02-22 07:29:00,
2013-02-22 02:34:00,28.1,18.0,30.20,NNW,337,7.0,11.9,65,0.00,,,0.00,Rainwise IP-100,2013-02-22 07:34:00,
2013-02-22 02:39:00,28.1,18.0,30.19,WNW,292,7.9,14.2,65,0.00,,,0.00,Rainwise IP-100,2013-02-22 07:39:00,
2013-02-22 02:44:00,28.2,18.0,30.19,NNW,337,8.4,18.4,65,0.00,,,0.00,Rainwise IP-100,2013-02-22 07:44:00,
2013-02-22 02:49:00,28.2,18.0,30.19,NW,315,3.7,11.0,65,0.00,,,0.00,Rainwise IP-100,2013-02-22 07:49:00,
2013-02-22 02:54:00,28.2,18.0,30.18,NW,315,8.4,16.3,65,0.00,,,0.00,Rainwise IP-100,2013-02-22 07:54:00,
2013-02-22 02:59:00,28.3,18.0,30.19,NW,315,4.2,12.1,66,0.00,,,0.00,Rainwise IP-100,2013-02-22 07:59:00,
2013-02-22 03:04:00,28.3,18.0,30.20,WNW,292,7.5,16.3,66,0.00,,,0.00,Rainwise IP-100,2013-02-22 08:04:00,
2013-02-22 03:09:00,28.3,18.0,30.21,NW,315,6.3,11.9,66,0.00,,,0.00,Rainwise IP-100,2013-02-22 08:09:00,
2013-02-22 03:14:00,28.2,18.0,30.20,NNW,337,7.7,16.1,66,0.00,,,0.00,Rainwise IP-100,2013-02-22 08:14:00,
2013-02-22 03:19:00,28.2,18.0,30.21,NNE,22,5.4,14.7,66,0.00,,,0.00,Rainwise IP-100,2013-02-22 08:19:00,
2013-02-22 03:24:00,28.2,18.0,30.21,North,360,14.2,14.2,66,0.00,,,0.00,Rainwise IP-100,2013-02-22 08:24:00,
2013-02-22 03:29:00,28.1,18.0,30.21,NNW,337,6.3,18.0,66,0.00,,,0.00,Rainwise IP-100,2013-02-22 08:29:00,
2013-02-22 03:34:00,28.1,18.0,30.21,NNW,337,7.0,15.4,66,0.00,,,0.00,Rainwise IP-100,2013-02-22 08:34:00,
2013-02-22 03:39:00,28.0,18.0,30.22,North,360,5.8,17.3,66,0.00,,,0.00,Rainwise IP-100,2013-02-22 08:39:00,
2013-02-22 03:44:00,28.0,18.0,30.21,North,360,8.2,15.6,67,0.00,,,0.00,Rainwise IP-100,2013-02-22 08:44:00,
2013-02-22 03:49:00,27.9,18.0,30.21,NNE,22,3.5,14.0,67,0.00,,,0.00,Rainwise IP-100,2013-02-22 08:49:00,
2013-02-22 03:54:00,27.9,18.0,30.21,NE,45,6.5,14.5,67,0.00,,,0.00,Rainwise IP-100,2013-02-22 08:54:00,
2013-02-22 03:59:00,28.0,18.0,30.21,North,360,3.7,12.8,67,0.00,,,0.00,Rainwise IP-100,2013-02-22 08:59:00,
2013-02-22 04:04:00,28.1,18.0,30.21,NW,315,6.3,12.4,67,0.00,,,0.00,Rainwise IP-100,2013-02-22 09:04:00,
2013-02-22 04:09:00,28.1,18.0,30.20,North,360,4.9,13.8,68,0.00,,,0.00,Rainwise IP-100,2013-02-22 09:09:00,
2013-02-22 04:14:00,28.1,18.0,30.20,NW,315,4.9,15.4,68,0.00,,,0.00,Rainwise IP-100,2013-02-22 09:14:00,
2013-02-22 04:19:00,28.2,18.0,30.19,NNW,337,13.1,13.1,68,0.00,,,0.00,Rainwise IP-100,2013-02-22 09:19:00,
2013-02-22 04:24:00,28.3,18.0,30.20,NNW,337,4.2,20.5,68,0.00,,,0.00,Rainwise IP-100,2013-02-22 09:24:00,
2013-02-22 04:29:00,28.3,18.0,30.20,NE,45,5.6,14.7,68,0.00,,,0.00,Rainwise IP-100,2013-02-22 09:29:00,
2013-02-22 04:34:00,28.3,18.0,30.21,North,360,7.0,16.6,68,0.00,,,0.00,Rainwise IP-100,2013-02-22 09:34:00,
2013-02-22 04:39:00,28.3,18.0,30.22,NNW,337,7.7,13.1,68,0.00,,,0.00,Rainwise IP-100,2013-02-22 09:39:00,
2013-02-22 04:44:00,28.5,21.0,30.22,North,360,8.2,14.0,68,0.00,,,0.00,Rainwise IP-100,2013-02-22 09:44:00,
2013-02-22 04:49:00,28.6,21.0,30.23,North,360,7.2,10.3,68,0.00,,,0.00,Rainwise IP-100,2013-02-22 09:49:00,
2013-02-22 04:54:00,28.6,21.0,30.23,NNW,337,4.4,11.2,68,0.00,,,0.00,Rainwise IP-100,2013-02-22 09:54:00,
2013-02-22 04:59:00,28.7,21.0,30.23,NNW,337,4.0,10.3,68,0.00,,,0.00,Rainwise IP-100,2013-02-22 09:59:00,
2013-02-22 05:04:00,28.8,21.0,30.25,NNW,337,9.6,11.9,68,0.00,,,0.00,Rainwise IP-100,2013-02-22 10:04:00,
2013-02-22 05:09:00,28.9,21.0,30.25,WNW,292,5.1,12.1,68,0.00,,,0.00,Rainwise IP-100,2013-02-22 10:09:00,
2013-02-22 05:14:00,29.0,21.0,30.26,NW,315,5.6,13.8,68,0.00,,,0.00,Rainwise IP-100,2013-02-22 10:14:00,
2013-02-22 05:19:00,29.1,21.0,30.26,NNW,337,5.8,11.7,69,0.00,,,0.00,Rainwise IP-100,2013-02-22 10:19:00,
2013-02-22 05:24:00,29.1,21.0,30.26,NW,315,4.0,12.4,69,0.00,,,0.00,Rainwise IP-100,2013-02-22 10:24:00,
2013-02-22 05:29:00,29.1,21.0,30.27,NW,315,3.0,7.5,69,0.00,,,0.00,Rainwise IP-100,2013-02-22 10:29:00,
2013-02-22 05:34:00,29.0,21.0,30.28,NNW,337,8.6,11.0,69,0.00,,,0.00,Rainwise IP-100,2013-02-22 10:34:00,
2013-02-22 05:39:00,29.0,21.0,30.28,NNW,337,7.5,11.7,69,0.00,,,0.00,Rainwise IP-100,2013-02-22 10:39:00,
2013-02-22 05:44:00,29.1,21.0,30.28,NNW,337,5.4,11.4,69,0.00,,,0.00,Rainwise IP-100,2013-02-22 10:44:00,
2013-02-22 05:49:00,29.0,21.0,30.28,WNW,292,8.4,9.3,69,0.00,,,0.00,Rainwise IP-100,2013-02-22 10:49:00,
2013-02-22 05:54:00,29.0,21.0,30.28,North,360,6.1,13.1,69,0.00,,,0.00,Rainwise IP-100,2013-02-22 10:54:00,
2013-02-22 05:59:00,29.0,21.0,30.28,NNW,337,6.5,11.4,69,0.00,,,0.00,Rainwise IP-100,2013-02-22 10:59:00,
2013-02-22 06:04:00,28.9,21.0,30.28,WNW,292,5.4,13.1,69,0.00,,,0.00,Rainwise IP-100,2013-02-22 11:04:00,
2013-02-22 06:09:00,28.9,21.0,30.27,NNW,337,8.4,16.3,69,0.00,,,0.00,Rainwise IP-100,2013-02-22 11:09:00,
2013-02-22 06:14:00,28.9,21.0,30.28,NNW,337,8.2,12.6,69,0.00,,,0.00,Rainwise IP-100,2013-02-22 11:14:00,
2013-02-22 06:19:00,28.9,21.0,30.28,NNW,337,7.0,13.8,70,0.00,,,0.00,Rainwise IP-100,2013-02-22 11:19:00,
2013-02-22 06:24:00,28.9,21.0,30.28,North,360,4.9,13.5,70,0.00,,,0.00,Rainwise IP-100,2013-02-22 11:24:00,
2013-02-22 06:29:00,29.0,21.0,30.28,WNW,292,4.2,13.3,70,0.00,,,0.00,Rainwise IP-100,2013-02-22 11:29:00,
2013-02-22 06:34:00,28.9,21.0,30.28,NNW,337,6.8,12.1,70,0.00,,,0.00,Rainwise IP-100,2013-02-22 11:34:00,
2013-02-22 06:39:00,29.0,21.0,30.29,WNW,292,2.8,11.4,70,0.00,,,0.00,Rainwise IP-100,2013-02-22 11:39:00,
2013-02-22 06:44:00,29.0,21.0,30.30,NNW,337,4.9,10.3,70,0.00,,,0.00,Rainwise IP-100,2013-02-22 11:44:00,
2013-02-22 06:49:00,29.1,21.0,30.30,North,360,5.4,14.9,70,0.00,,,0.00,Rainwise IP-100,2013-02-22 11:49:00,
2013-02-22 06:54:00,29.2,21.0,30.30,North,360,4.4,10.7,70,0.00,,,0.00,Rainwise IP-100,2013-02-22 11:54:00,
2013-02-22 06:59:00,29.2,21.0,30.31,North,360,5.6,11.7,70,0.00,,,0.00,Rainwise IP-100,2013-02-22 11:59:00,
2013-02-22 07:04:00,29.2,21.0,30.32,NNW,337,9.6,12.6,70,0.00,,,0.00,Rainwise IP-100,2013-02-22 12:04:00,
2013-02-22 07:09:00,29.2,21.0,30.32,NNW,337,8.9,13.8,70,0.00,,,0.00,Rainwise IP-100,2013-02-22 12:09:00,
2013-02-22 07:14:00,29.2,21.0,30.32,North,360,3.5,12.8,70,0.00,,,0.00,Rainwise IP-100,2013-02-22 12:14:00,
2013-02-22 07:19:00,29.3,21.0,30.32,NNE,22,3.5,11.2,70,0.00,,,0.00,Rainwise IP-100,2013-02-22 12:19:00,
2013-02-22 07:24:00,29.3,21.0,30.32,NNE,22,8.9,9.6,69,0.00,,,0.00,Rainwise IP-100,2013-02-22 12:24:00,
2013-02-22 07:29:00,29.3,21.0,30.32,NNW,337,7.2,12.8,69,0.00,,,0.00,Rainwise IP-100,2013-02-22 12:29:00,
2013-02-22 07:34:00,29.4,21.0,30.32,NNE,22,6.5,11.9,69,0.00,,,0.00,Rainwise IP-100,2013-02-22 12:34:00,
2013-02-22 07:39:00,29.3,21.0,30.32,NNW,337,7.2,14.9,69,0.00,,,0.00,Rainwise IP-100,2013-02-22 12:39:00,
2013-02-22 07:44:00,29.3,21.0,30.33,North,360,5.4,11.7,69,0.00,,,0.00,Rainwise IP-100,2013-02-22 12:44:00,
2013-02-22 07:49:00,29.3,21.0,30.33,NNW,337,7.7,12.8,69,0.00,,,0.00,Rainwise IP-100,2013-02-22 12:49:00,
2013-02-22 07:54:00,29.3,21.0,30.33,NNE,22,2.8,11.4,69,0.00,,,0.00,Rainwise IP-100,2013-02-22 12:54:00,
2013-02-22 07:59:00,29.3,21.0,30.32,North,360,9.6,14.2,69,0.00,,,0.00,Rainwise IP-100,2013-02-22 12:59:00,
2013-02-22 08:04:00,29.4,21.0,30.32,NNW,337,7.9,14.2,69,0.00,,,0.00,Rainwise IP-100,2013-02-22 13:04:00,
2013-02-22 08:09:00,29.5,23.0,30.32,North,360,4.7,11.2,69,0.00,,,0.00,Rainwise IP-100,2013-02-22 13:09:00,
2013-02-22 08:14:00,29.7,23.0,30.32,WNW,292,4.4,9.8,69,0.00,,,0.00,Rainwise IP-100,2013-02-22 13:14:00,
2013-02-22 08:19:00,29.8,23.0,30.32,NNE,22,6.3,11.2,69,0.00,,,0.00,Rainwise IP-100,2013-02-22 13:19:00,
2013-02-22 08:24:00,29.9,23.0,30.33,NNE,22,10.7,14.9,69,0.00,,,0.00,Rainwise IP-100,2013-02-22 13:24:00,
2013-02-22 08:29:00,30.0,23.0,30.33,NNE,22,4.4,14.5,68,0.00,,,0.00,Rainwise IP-100,2013-02-22 13:29:00,
2013-02-22 08:34:00,30.1,23.0,30.33,NNW,337,8.4,12.4,68,0.00,,,0.00,Rainwise IP-100,2013-02-22 13:34:00,
2013-02-22 08:39:00,30.2,23.0,30.33,North,360,5.6,10.7,68,0.00,,,0.00,Rainwise IP-100,2013-02-22 13:39:00,
2013-02-22 08:44:00,30.4,23.0,30.33,NNW,337,10.0,12.6,68,0.00,,,0.00,Rainwise IP-100,2013-02-22 13:44:00,
2013-02-22 08:49:00,30.6,23.0,30.33,North,360,1.9,14.7,68,0.00,,,0.00,Rainwise IP-100,2013-02-22 13:49:00,
2013-02-22 08:54:00,30.7,23.0,30.33,North,360,2.1,10.7,68,0.00,,,0.00,Rainwise IP-100,2013-02-22 13:54:00,
2013-02-22 08:59:00,30.9,23.0,30.33,NW,315,4.9,10.5,68,0.00,,,0.00,Rainwise IP-100,2013-02-22 13:59:00,
2013-02-22 09:04:00,31.0,23.0,30.33,NNW,337,4.4,9.3,68,0.00,,,0.00,Rainwise IP-100,2013-02-22 14:04:00,
2013-02-22 09:09:00,31.0,23.0,30.33,North,360,4.7,8.6,68,0.00,,,0.00,Rainwise IP-100,2013-02-22 14:09:00,
2013-02-22 09:14:00,31.4,23.0,30.33,NNW,337,2.3,7.9,68,0.00,,,0.00,Rainwise IP-100,2013-02-22 14:14:00,
2013-02-22 09:19:00,31.7,23.0,30.33,NNW,337,10.5,10.5,67,0.00,,,0.00,Rainwise IP-100,2013-02-22 14:19:00,
2013-02-22 09:24:00,31.6,23.0,30.33,NNW,337,4.0,11.4,67,0.00,,,0.00,Rainwise IP-100,2013-02-22 14:24:00,
2013-02-22 09:29:00,31.7,23.0,30.34,North,360,3.3,11.2,67,0.00,,,0.00,Rainwise IP-100,2013-02-22 14:29:00,
2013-02-22 09:34:00,32.0,23.0,30.33,NW,315,6.5,10.7,66,0.00,,,0.00,Rainwise IP-100,2013-02-22 14:34:00,
2013-02-22 09:39:00,32.2,23.0,30.33,NNW,337,5.8,15.4,66,0.00,,,0.00,Rainwise IP-100,2013-02-22 14:39:00,
2013-02-22 09:44:00,32.3,23.0,30.33,NW,315,5.8,7.7,66,0.00,,,0.00,Rainwise IP-100,2013-02-22 14:44:00,
2013-02-22 09:49:00,32.6,24.0,30.34,North,360,3.0,11.2,66,0.00,,,0.00,Rainwise IP-100,2013-02-22 14:49:00,
2013-02-22 09:54:00,32.9,24.0,30.34,North,360,4.2,7.7,66,0.00,,,0.00,Rainwise IP-100,2013-02-22 14:54:00,
2013-02-22 09:59:00,33.2,24.0,30.34,NNW,337,6.5,9.3,66,0.00,,,0.00,Rainwise IP-100,2013-02-22 14:59:00,
2013-02-22 10:04:00,33.3,23.0,30.34,North,360,4.9,11.4,65,0.00,,,0.00,Rainwise IP-100,2013-02-22 15:04:00,
2013-02-22 10:09:00,33.3,23.0,30.34,NNW,337,4.0,10.3,65,0.00,,,0.00,Rainwise IP-100,2013-02-22 15:09:00,
2013-02-22 10:14:00,33.5,24.0,30.34,NW,315,2.3,8.4,66,0.00,,,0.00,Rainwise IP-100,2013-02-22 15:14:00,
2013-02-22 10:19:00,33.6,24.0,30.34,NNW,337,4.4,10.5,66,0.00,,,0.00,Rainwise IP-100,2013-02-22 15:19:00,
2013-02-22 10:24:00,33.7,24.0,30.34,NNW,337,5.8,9.3,66,0.00,,,0.00,Rainwise IP-100,2013-02-22 15:24:00,
2013-02-22 10:29:00,34.0,24.0,30.34,NNW,337,5.1,8.9,66,0.00,,,0.00,Rainwise IP-100,2013-02-22 15:29:00,
2013-02-22 10:34:00,34.3,24.0,30.34,NW,315,4.7,7.9,66,0.00,,,0.00,Rainwise IP-100,2013-02-22 15:34:00,
2013-02-22 10:39:00,34.6,24.0,30.34,North,360,2.1,9.8,65,0.00,,,0.00,Rainwise IP-100,2013-02-22 15:39:00,
2013-02-22 10:44:00,34.9,24.0,30.34,NW,315,7.5,9.1,64,0.00,,,0.00,Rainwise IP-100,2013-02-22 15:44:00,
2013-02-22 10:49:00,35.2,24.0,30.34,North,360,4.0,10.0,64,0.00,,,0.00,Rainwise IP-100,2013-02-22 15:49:00,
2013-02-22 10:54:00,35.3,24.0,30.34,North,360,3.5,5.8,64,0.00,,,0.00,Rainwise IP-100,2013-02-22 15:54:00,
2013-02-22 10:59:00,35.5,24.0,30.34,NNW,337,8.6,8.6,64,0.00,,,0.00,Rainwise IP-100,2013-02-22 15:59:00,
2013-02-22 11:04:00,35.7,24.0,30.33,ENE,67,3.7,9.1,64,0.00,,,0.00,Rainwise IP-100,2013-02-22 16:04:00,
2013-02-22 11:09:00,36.0,24.0,30.33,North,360,2.1,12.1,63,0.00,,,0.00,Rainwise IP-100,2013-02-22 16:09:00,
2013-02-22 11:14:00,35.9,24.0,30.33,North,360,5.4,10.0,63,0.00,,,0.00,Rainwise IP-100,2013-02-22 16:14:00,
2013-02-22 11:19:00,35.9,24.0,30.33,NE,45,2.8,13.3,63,0.00,,,0.00,Rainwise IP-100,2013-02-22 16:19:00,
2013-02-22 11:24:00,36.2,24.0,30.32,ENE,67,4.7,10.5,63,0.00,,,0.00,Rainwise IP-100,2013-02-22 16:24:00,
2013-02-22 11:29:00,36.6,26.0,30.32,NNE,22,0.0,12.4,62,0.00,,,0.00,Rainwise IP-100,2013-02-22 16:29:00,
2013-02-22 11:34:00,37.1,26.0,30.32,NNE,22,3.3,17.5,62,0.00,,,0.00,Rainwise IP-100,2013-02-22 16:34:00,
2013-02-22 11:39:00,37.2,26.0,30.33,ENE,67,4.7,14.2,62,0.00,,,0.00,Rainwise IP-100,2013-02-22 16:39:00,
2013-02-22 11:44:00,36.9,26.0,30.33,North,360,1.4,10.7,62,0.00,,,0.00,Rainwise IP-100,2013-02-22 16:44:00,
2013-02-22 11:49:00,37.1,24.0,30.33,North,360,7.0,11.2,61,0.00,,,0.00,Rainwise IP-100,2013-02-22 16:49:00,
2013-02-22 11:54:00,36.8,24.0,30.33,NNW,337,8.6,8.6,61,0.00,,,0.00,Rainwise IP-100,2013-02-22 16:54:00,
2013-02-22 11:59:00,36.2,24.0,30.32,SE,135,4.7,10.5,62,0.00,,,0.00,Rainwise IP-100,2013-02-22 16:59:00,
2013-02-22 12:04:00,36.3,24.0,30.32,NNW,337,6.1,10.3,62,0.00,,,0.00,Rainwise IP-100,2013-02-22 17:04:00,
2013-02-22 12:09:00,36.2,24.0,30.32,ENE,67,2.8,13.8,63,0.00,,,0.00,Rainwise IP-100,2013-02-22 17:09:00,
2013-02-22 12:14:00,35.9,24.0,30.32,NE,45,2.3,7.9,64,0.00,,,0.00,Rainwise IP-100,2013-02-22 17:14:00,
2013-02-22 12:19:00,35.7,24.0,30.32,ENE,67,3.0,7.2,64,0.00,,,0.00,Rainwise IP-100,2013-02-22 17:19:00,
2013-02-22 12:24:00,36.1,24.0,30.32,East,90,3.5,6.8,64,0.00,,,0.00,Rainwise IP-100,2013-02-22 17:24:00,
2013-02-22 12:29:00,36.2,24.0,30.32,WNW,292,5.4,7.7,64,0.00,,,0.00,Rainwise IP-100,2013-02-22 17:29:00,
2013-02-22 12:34:00,36.2,24.0,30.32,NNE,22,2.1,7.9,64,0.00,,,0.00,Rainwise IP-100,2013-02-22 17:34:00,
2013-02-22 12:39:00,36.2,24.0,30.32,ENE,67,1.4,12.1,64,0.00,,,0.00,Rainwise IP-100,2013-02-22 17:39:00,
2013-02-22 12:44:00,36.3,24.0,30.32,NNW,337,5.4,7.9,64,0.00,,,0.00,Rainwise IP-100,2013-02-22 17:44:00,
2013-02-22 12:49:00,36.3,24.0,30.32,NE,45,6.1,16.3,64,0.00,,,0.00,Rainwise IP-100,2013-02-22 17:49:00,
2013-02-22 12:54:00,36.4,24.0,30.32,NW,315,1.6,10.3,64,0.00,,,0.00,Rainwise IP-100,2013-02-22 17:54:00,
2013-02-22 12:59:00,36.6,26.0,30.32,SE,135,1.6,11.7,63,0.00,,,0.00,Rainwise IP-100,2013-02-22 17:59:00,
2013-02-22 13:04:00,36.8,26.0,30.32,ENE,67,4.9,6.8,63,0.00,,,0.00,Rainwise IP-100,2013-02-22 18:04:00,
2013-02-22 13:09:00,36.8,26.0,30.33,NW,315,5.8,7.7,63,0.00,,,0.00,Rainwise IP-100,2013-02-22 18:09:00,
2013-02-22 13:14:00,36.7,26.0,30.32,NE,45,4.2,10.3,63,0.00,,,0.00,Rainwise IP-100,2013-02-22 18:14:00,
2013-02-22 13:19:00,36.8,26.0,30.32,NNW,337,4.0,12.1,63,0.00,,,0.00,Rainwise IP-100,2013-02-22 18:19:00,
2013-02-22 13:24:00,37.3,26.0,30.32,ENE,67,3.5,9.1,63,0.00,,,0.00,Rainwise IP-100,2013-02-22 18:24:00,
2013-02-22 13:29:00,37.9,26.0,30.32,NNW,337,9.8,12.4,62,0.00,,,0.00,Rainwise IP-100,2013-02-22 18:29:00,
2013-02-22 13:34:00,37.6,26.0,30.32,North,360,2.1,10.3,60,0.00,,,0.00,Rainwise IP-100,2013-02-22 18:34:00,
2013-02-22 13:39:00,37.3,24.0,30.33,North,360,3.7,8.4,61,0.00,,,0.00,Rainwise IP-100,2013-02-22 18:39:00,
2013-02-22 13:44:00,36.8,24.0,30.32,NNE,22,4.7,11.2,61,0.00,,,0.00,Rainwise IP-100,2013-02-22 18:44:00,
2013-02-22 13:49:00,36.7,26.0,30.33,NNE,22,2.8,10.0,62,0.00,,,0.00,Rainwise IP-100,2013-02-22 18:49:00,
2013-02-22 13:54:00,36.9,26.0,30.34,North,360,4.2,7.0,62,0.00,,,0.00,Rainwise IP-100,2013-02-22 18:54:00,
2013-02-22 13:59:00,36.9,24.0,30.33,ESE,112,2.1,7.5,61,0.00,,,0.00,Rainwise IP-100,2013-02-22 18:59:00,
2013-02-22 14:04:00,36.8,24.0,30.32,NNE,22,4.4,7.5,61,0.00,,,0.00,Rainwise IP-100,2013-02-22 19:04:00,
2013-02-22 14:09:00,36.6,26.0,30.32,ENE,67,4.9,7.5,62,0.00,,,0.00,Rainwise IP-100,2013-02-22 19:09:00,
2013-02-22 14:14:00,36.4,24.0,30.32,NE,45,3.7,6.8,62,0.00,,,0.00,Rainwise IP-100,2013-02-22 19:14:00,
2013-02-22 14:19:00,36.4,24.0,30.32,NNE,22,5.1,5.6,62,0.00,,,0.00,Rainwise IP-100,2013-02-22 19:19:00,
2013-02-22 14:24:00,36.5,26.0,30.32,ENE,67,2.8,7.0,62,0.00,,,0.00,Rainwise IP-100,2013-02-22 19:24:00,
2013-02-22 14:29:00,36.4,24.0,30.32,NNE,22,3.3,6.5,61,0.00,,,0.00,Rainwise IP-100,2013-02-22 19:29:00,
2013-02-22 14:34:00,36.4,24.0,30.32,East,90,3.5,6.5,61,0.00,,,0.00,Rainwise IP-100,2013-02-22 19:34:00,
2013-02-22 14:39:00,36.4,24.0,30.32,North,360,3.5,11.4,61,0.00,,,0.00,Rainwise IP-100,2013-02-22 19:39:00,
2013-02-22 14:44:00,36.0,24.0,30.32,NNW,337,5.6,7.7,62,0.00,,,0.00,Rainwise IP-100,2013-02-22 19:44:00,
2013-02-22 14:49:00,35.8,24.0,30.32,NNE,22,4.4,6.3,62,0.00,,,0.00,Rainwise IP-100,2013-02-22 19:49:00,
2013-02-22 14:54:00,35.8,24.0,30.32,NE,45,3.0,8.4,63,0.00,,,0.00,Rainwise IP-100,2013-02-22 19:54:00,
2013-02-22 14:59:00,36.0,24.0,30.32,North,360,3.5,5.8,62,0.00,,,0.00,Rainwise IP-100,2013-02-22 19:59:00,
2013-02-22 15:04:00,36.3,24.0,30.32,NNE,22,2.6,5.8,61,0.00,,,0.00,Rainwise IP-100,2013-02-22 20:04:00,
2013-02-22 15:09:00,36.4,24.0,30.32,East,90,2.1,6.1,61,0.00,,,0.00,Rainwise IP-100,2013-02-22 20:09:00,
2013-02-22 15:14:00,36.2,24.0,30.32,NNE,22,0.0,5.1,61,0.00,,,0.00,Rainwise IP-100,2013-02-22 20:14:00,
2013-02-22 15:19:00,36.0,24.0,30.32,NNE,22,4.4,5.6,62,0.00,,,0.00,Rainwise IP-100,2013-02-22 20:19:00,
2013-02-22 15:24:00,36.1,24.0,30.32,East,90,4.4,5.8,63,0.00,,,0.00,Rainwise IP-100,2013-02-22 20:24:00,
2013-02-22 15:29:00,35.8,24.0,30.33,NNE,22,3.3,6.3,63,0.00,,,0.00,Rainwise IP-100,2013-02-22 20:29:00,
2013-02-22 15:34:00,35.6,24.0,30.33,NNE,22,3.3,6.5,63,0.00,,,0.00,Rainwise IP-100,2013-02-22 20:34:00,
2013-02-22 15:39:00,35.6,24.0,30.33,NE,45,4.2,6.3,62,0.00,,,0.00,Rainwise IP-100,2013-02-22 20:39:00,
2013-02-22 15:44:00,35.4,23.0,30.33,NE,45,0.0,6.8,62,0.00,,,0.00,Rainwise IP-100,2013-02-22 20:44:00,
2013-02-22 15:49:00,35.3,23.0,30.33,NE,45,1.2,5.1,62,0.00,,,0.00,Rainwise IP-100,2013-02-22 20:49:00,
2013-02-22 15:54:00,35.3,24.0,30.33,ENE,67,3.5,6.3,63,0.00,,,0.00,Rainwise IP-100,2013-02-22 20:54:00,
2013-02-22 15:59:00,35.3,24.0,30.33,ENE,67,1.4,5.8,63,0.00,,,0.00,Rainwise IP-100,2013-02-22 20:59:00,
2013-02-22 16:04:00,35.2,24.0,30.33,NE,45,1.2,6.1,63,0.00,,,0.00,Rainwise IP-100,2013-02-22 21:04:00,
2013-02-22 16:09:00,35.0,24.0,30.33,North,360,2.8,5.1,63,0.00,,,0.00,Rainwise IP-100,2013-02-22 21:09:00,
2013-02-22 16:14:00,34.9,24.0,30.33,North,360,1.9,4.9,64,0.00,,,0.00,Rainwise IP-100,2013-02-22 21:14:00,
2013-02-22 16:19:00,34.8,24.0,30.33,NE,45,2.3,4.7,64,0.00,,,0.00,Rainwise IP-100,2013-02-22 21:19:00,
2013-02-22 16:24:00,34.8,24.0,30.32,ENE,67,2.3,4.4,64,0.00,,,0.00,Rainwise IP-100,2013-02-22 21:24:00,
2013-02-22 16:29:00,34.9,24.0,30.32,NE,45,1.2,6.3,64,0.00,,,0.00,Rainwise IP-100,2013-02-22 21:29:00,
2013-02-22 16:34:00,34.9,24.0,30.32,NNE,22,3.3,5.4,64,0.00,,,0.00,Rainwise IP-100,2013-02-22 21:34:00,
2013-02-22 16:39:00,34.9,24.0,30.32,NNE,22,2.8,4.9,64,0.00,,,0.00,Rainwise IP-100,2013-02-22 21:39:00,
2013-02-22 16:44:00,34.9,24.0,30.31,ENE,67,2.1,4.9,65,0.00,,,0.00,Rainwise IP-100,2013-02-22 21:44:00,
2013-02-22 16:49:00,34.7,24.0,30.31,NE,45,3.5,5.4,66,0.00,,,0.00,Rainwise IP-100,2013-02-22 21:49:00,
2013-02-22 16:54:00,34.6,24.0,30.31,NE,45,1.2,4.4,66,0.00,,,0.00,Rainwise IP-100,2013-02-22 21:54:00,
2013-02-22 16:59:00,34.6,24.0,30.31,NE,45,0.0,4.9,66,0.00,,,0.00,Rainwise IP-100,2013-02-22 21:59:00,
2013-02-22 17:04:00,34.5,24.0,30.31,ENE,67,2.3,6.5,67,0.00,,,0.00,Rainwise IP-100,2013-02-22 22:04:00,
2013-02-22 17:09:00,34.3,24.0,30.30,East,90,0.0,6.3,67,0.00,,,0.00,Rainwise IP-100,2013-02-22 22:09:00,
2013-02-22 17:14:00,34.3,24.0,30.31,ESE,112,1.9,6.3,67,0.00,,,0.00,Rainwise IP-100,2013-02-22 22:14:00,
2013-02-22 17:19:00,34.2,26.0,30.31,East,90,0.0,6.3,68,0.00,,,0.00,Rainwise IP-100,2013-02-22 22:19:00,
2013-02-22 17:24:00,34.2,26.0,30.32,SSE,157,0.0,3.7,68,0.00,,,0.00,Rainwise IP-100,2013-02-22 22:24:00,
2013-02-22 17:29:00,34.1,26.0,30.33,SSE,157,0.0,1.6,69,0.00,,,0.00,Rainwise IP-100,2013-02-22 22:29:00,
2013-02-22 17:34:00,34.0,26.0,30.33,SE,135,1.2,1.6,69,0.00,,,0.00,Rainwise IP-100,2013-02-22 22:34:00,
2013-02-22 17:39:00,33.9,26.0,30.34,NNE,22,2.1,3.0,69,0.00,,,0.00,Rainwise IP-100,2013-02-22 22:39:00,
2013-02-22 17:44:00,33.9,26.0,30.34,NNE,22,0.0,4.4,69,0.00,,,0.00,Rainwise IP-100,2013-02-22 22:44:00,
2013-02-22 17:49:00,33.9,26.0,30.34,NNE,22,0.0,1.6,69,0.00,,,0.00,Rainwise IP-100,2013-02-22 22:49:00,
2013-02-22 17:54:00,33.8,26.0,30.34,NNW,337,1.2,1.6,70,0.00,,,0.00,Rainwise IP-100,2013-02-22 22:54:00,
2013-02-22 17:59:00,33.7,26.0,30.33,ENE,67,2.3,3.5,70,0.00,,,0.00,Rainwise IP-100,2013-02-22 22:59:00,
2013-02-22 18:04:00,33.5,26.0,30.33,ENE,67,1.6,3.0,71,0.00,,,0.00,Rainwise IP-100,2013-02-22 23:04:00,
2013-02-22 18:09:00,33.3,26.0,30.33,ENE,67,0.0,1.6,72,0.00,,,0.00,Rainwise IP-100,2013-02-22 23:09:00,
2013-02-22 18:14:00,33.2,26.0,30.33,ENE,67,0.0,0.0,73,0.00,,,0.00,Rainwise IP-100,2013-02-22 23:14:00,
2013-02-22 18:19:00,33.2,26.0,30.33,North,360,0.0,1.9,73,0.00,,,0.00,Rainwise IP-100,2013-02-22 23:19:00,
2013-02-22 18:24:00,33.1,26.0,30.32,North,360,0.0,1.4,73,0.00,,,0.00,Rainwise IP-100,2013-02-22 23:24:00,
2013-02-22 18:29:00,33.1,26.0,30.32,North,360,0.0,1.4,73,0.00,,,0.00,Rainwise IP-100,2013-02-22 23:29:00,
2013-02-22 18:34:00,33.1,26.0,30.33,NE,45,0.0,1.6,73,0.00,,,0.00,Rainwise IP-100,2013-02-22 23:34:00,
2013-02-22 18:39:00,33.1,26.0,30.33,NE,45,0.0,1.4,73,0.00,,,0.00,Rainwise IP-100,2013-02-22 23:39:00,
2013-02-22 18:44:00,33.0,26.0,30.33,NE,45,0.0,0.0,73,0.00,,,0.00,Rainwise IP-100,2013-02-22 23:44:00,
2013-02-22 18:49:00,33.0,26.0,30.34,NE,45,0.0,0.0,73,0.00,,,0.00,Rainwise IP-100,2013-02-22 23:49:00,
2013-02-22 18:54:00,33.1,26.0,30.34,West,270,1.9,2.6,73,0.00,,,0.00,Rainwise IP-100,2013-02-22 23:54:00,
2013-02-22 18:59:00,33.1,26.0,30.34,West,270,0.0,1.9,73,0.00,,,0.00,Rainwise IP-100,2013-02-22 23:59:00,
2013-02-22 19:04:00,33.0,26.0,30.34,West,270,0.0,0.0,73,0.00,,,0.00,Rainwise IP-100,2013-02-23 00:04:00,
2013-02-22 19:09:00,32.9,26.0,30.34,West,270,0.0,0.0,73,0.00,,,0.00,Rainwise IP-100,2013-02-23 00:09:00,
2013-02-22 19:14:00,32.9,26.0,30.34,West,270,0.0,0.0,73,0.00,,,0.00,Rainwise IP-100,2013-02-23 00:14:00,
2013-02-22 19:19:00,32.8,26.0,30.34,West,270,1.9,1.9,73,0.00,,,0.00,Rainwise IP-100,2013-02-23 00:19:00,
2013-02-22 19:24:00,32.9,26.0,30.35,West,270,1.9,2.3,73,0.00,,,0.00,Rainwise IP-100,2013-02-23 00:24:00,
2013-02-22 19:29:00,32.9,26.0,30.34,West,270,0.0,2.3,73,0.00,,,0.00,Rainwise IP-100,2013-02-23 00:29:00,
2013-02-22 19:34:00,32.8,26.0,30.35,West,270,0.0,1.6,74,0.00,,,0.00,Rainwise IP-100,2013-02-23 00:34:00,
2013-02-22 19:39:00,32.7,26.0,30.34,West,270,0.0,1.6,74,0.00,,,0.00,Rainwise IP-100,2013-02-23 00:39:00,
2013-02-22 19:44:00,32.6,26.0,30.33,West,270,0.0,0.0,75,0.00,,,0.00,Rainwise IP-100,2013-02-23 00:44:00,
2013-02-22 19:49:00,32.4,26.0,30.33,West,270,0.0,0.0,76,0.00,,,0.00,Rainwise IP-100,2013-02-23 00:49:00,
2013-02-22 19:54:00,32.2,26.0,30.33,West,270,0.0,0.0,78,0.00,,,0.00,Rainwise IP-100,2013-02-23 00:54:00,
2013-02-22 19:59:00,32.1,26.0,30.34,WSW,247,1.4,2.1,78,0.00,,,0.00,Rainwise IP-100,2013-02-23 00:59:00,
2013-02-22 20:04:00,32.1,26.0,30.34,WSW,247,0.0,1.6,77,0.00,,,0.00,Rainwise IP-100,2013-02-23 01:04:00,
2013-02-22 20:09:00,32.2,26.0,30.33,WSW,247,0.0,0.0,78,0.00,,,0.00,Rainwise IP-100,2013-02-23 01:09:00,
2013-02-22 20:14:00,32.0,26.0,30.33,WSW,247,0.0,0.0,78,0.00,,,0.00,Rainwise IP-100,2013-02-23 01:14:00,
2013-02-22 20:20:00,32.1,26.0,30.35,West,270,2.8,3.5,78,0.00,,,0.00,Rainwise IP-100,2013-02-23 01:20:00,
2013-02-22 20:25:00,32.2,26.0,30.35,West,270,0.0,3.3,77,0.00,,,0.00,Rainwise IP-100,2013-02-23 01:25:00,
2013-02-22 20:30:00,32.3,26.0,30.34,West,270,0.0,0.0,77,0.00,,,0.00,Rainwise IP-100,2013-02-23 01:30:00,
2013-02-22 20:35:00,32.3,26.0,30.34,West,270,0.0,0.0,78,0.00,,,0.00,Rainwise IP-100,2013-02-23 01:35:00,
2013-02-22 20:40:00,32.1,26.0,30.34,West,270,0.0,0.0,79,0.00,,,0.00,Rainwise IP-100,2013-02-23 01:40:00,
2013-02-22 20:45:00,32.0,26.0,30.34,West,270,0.0,0.0,79,0.00,,,0.00,Rainwise IP-100,2013-02-23 01:45:00,
2013-02-22 20:50:00,31.9,26.0,30.34,West,270,0.0,0.0,80,0.00,,,0.00,Rainwise IP-100,2013-02-23 01:50:00,
2013-02-22 20:55:00,31.8,28.0,30.34,West,270,0.0,0.0,81,0.00,,,0.00,Rainwise IP-100,2013-02-23 01:55:00,
2013-02-22 21:00:00,31.7,28.0,30.34,West,270,0.0,0.0,81,0.00,,,0.00,Rainwise IP-100,2013-02-23 02:00:00,
2013-02-22 21:05:00,31.8,26.0,30.34,West,270,0.0,0.0,80,0.00,,,0.00,Rainwise IP-100,2013-02-23 02:05:00,
2013-02-22 21:10:00,31.8,26.0,30.34,West,270,0.0,0.0,79,0.00,,,0.00,Rainwise IP-100,2013-02-23 02:10:00,
2013-02-22 21:15:00,31.9,26.0,30.34,West,270,0.0,0.0,79,0.00,,,0.00,Rainwise IP-100,2013-02-23 02:15:00,
2013-02-22 21:20:00,31.8,26.0,30.34,West,270,0.0,0.0,80,0.00,,,0.00,Rainwise IP-100,2013-02-23 02:20:00,
2013-02-22 21:25:00,31.8,28.0,30.33,West,270,0.0,0.0,81,0.00,,,0.00,Rainwise IP-100,2013-02-23 02:25:00,
2013-02-22 21:30:00,31.6,28.0,30.33,West,270,0.0,0.0,82,0.00,,,0.00,Rainwise IP-100,2013-02-23 02:30:00,
2013-02-22 21:35:00,31.4,26.0,30.33,West,270,0.0,0.0,82,0.00,,,0.00,Rainwise IP-100,2013-02-23 02:35:00,
2013-02-22 21:40:00,31.3,26.0,30.32,West,270,0.0,0.0,83,0.00,,,0.00,Rainwise IP-100,2013-02-23 02:40:00,
2013-02-22 21:45:00,31.3,26.0,30.32,West,270,0.0,0.0,83,0.00,,,0.00,Rainwise IP-100,2013-02-23 02:45:00,
2013-02-22 21:50:00,31.2,26.0,30.32,West,270,0.0,0.0,83,0.00,,,0.00,Rainwise IP-100,2013-02-23 02:50:00,
2013-02-22 21:55:00,31.3,26.0,30.33,West,270,0.0,1.2,83,0.00,,,0.00,Rainwise IP-100,2013-02-23 02:55:00,
2013-02-22 22:00:00,31.5,28.0,30.32,West,270,0.0,0.0,81,0.00,,,0.00,Rainwise IP-100,2013-02-23 03:00:00,
2013-02-22 22:05:00,31.6,28.0,30.33,West,270,0.0,0.0,81,0.00,,,0.00,Rainwise IP-100,2013-02-23 03:05:00,
2013-02-22 22:10:00,31.6,28.0,30.33,West,270,1.2,1.2,81,0.00,,,0.00,Rainwise IP-100,2013-02-23 03:10:00,
2013-02-22 22:15:00,31.7,28.0,30.33,WNW,292,1.4,1.9,81,0.00,,,0.00,Rainwise IP-100,2013-02-23 03:15:00,
2013-02-22 22:20:00,31.9,26.0,30.33,NNW,337,0.0,1.6,80,0.00,,,0.00,Rainwise IP-100,2013-02-23 03:20:00,
2013-02-22 22:25:00,31.9,26.0,30.34,NNW,337,1.6,1.9,80,0.00,,,0.00,Rainwise IP-100,2013-02-23 03:25:00,
2013-02-22 22:30:00,31.9,26.0,30.34,NNW,337,1.2,1.9,80,0.00,,,0.00,Rainwise IP-100,2013-02-23 03:30:00,
2013-02-22 22:35:00,31.8,26.0,30.34,NNW,337,0.0,1.4,80,0.00,,,0.00,Rainwise IP-100,2013-02-23 03:35:00,
2013-02-22 22:40:00,31.8,26.0,30.33,NNW,337,1.2,1.6,79,0.00,,,0.00,Rainwise IP-100,2013-02-23 03:40:00,
2013-02-22 22:45:00,31.8,26.0,30.33,NNW,337,2.3,2.3,79,0.00,,,0.00,Rainwise IP-100,2013-02-23 03:45:00,
2013-02-22 22:50:00,31.8,26.0,30.33,NNW,337,1.2,2.3,79,0.00,,,0.00,Rainwise IP-100,2013-02-23 03:50:00,
2013-02-22 22:55:00,31.7,26.0,30.34,NNW,337,1.9,1.9,80,0.00,,,0.00,Rainwise IP-100,2013-02-23 03:55:00,
2013-02-22 23:00:00,31.6,28.0,30.33,NNW,337,1.2,1.9,81,0.00,,,0.00,Rainwise IP-100,2013-02-23 04:00:00,
2013-02-22 23:05:00,31.4,26.0,30.32,NNW,337,0.0,1.2,82,0.00,,,0.00,Rainwise IP-100,2013-02-23 04:05:00,
2013-02-22 23:10:00,31.3,26.0,30.32,NNW,337,0.0,0.0,83,0.00,,,0.00,Rainwise IP-100,2013-02-23 04:10:00,
2013-02-22 23:15:00,31.3,26.0,30.33,NNW,337,0.0,1.4,82,0.00,,,0.00,Rainwise IP-100,2013-02-23 04:15:00,
2013-02-22 23:20:00,31.5,28.0,30.32,NNW,337,0.0,0.0,81,0.00,,,0.00,Rainwise IP-100,2013-02-23 04:20:00,
2013-02-22 23:25:00,31.6,28.0,30.33,NNW,337,0.0,2.1,81,0.00,,,0.00,Rainwise IP-100,2013-02-23 04:25:00,
2013-02-22 23:30:00,31.5,28.0,30.32,NNW,337,0.0,0.0,82,0.00,,,0.00,Rainwise IP-100,2013-02-23 04:30:00,
2013-02-22 23:35:00,31.3,26.0,30.32,NNW,337,1.2,1.4,83,0.00,,,0.00,Rainwise IP-100,2013-02-23 04:35:00,
2013-02-22 23:40:00,31.1,26.0,30.32,NNW,337,1.2,1.9,84,0.00,,,0.00,Rainwise IP-100,2013-02-23 04:40:00,
2013-02-22 23:45:00,30.9,26.0,30.32,NNW,337,0.0,1.6,84,0.00,,,0.00,Rainwise IP-100,2013-02-23 04:45:00,
2013-02-22 23:50:00,30.9,26.0,30.32,NNW,337,0.0,0.0,85,0.00,,,0.00,Rainwise IP-100,2013-02-23 04:50:00,
2013-02-22 23:55:00,31.0,28.0,30.31,NNW,337,0.0,1.2,86,0.00,,,0.00,Rainwise IP-100,2013-02-23 04:55:00,